EW5498 Weather Reports


time (UTC)temp
C
wind
direction
speed
KPH
gust
KPH
rain 1hr
cm
rain 24hr
cm
rain mn
cm
humidity
%
barometer
mb
20260505153328 16 0.0 0.0 0.03 0.76 0.76 72 1010.4
20260505153226 16 0.0 0.0 0.03 0.76 0.76 72 1010.4
20260505153128 16 0.0 0.0 0.03 0.76 0.76 72 1010.3
20260505153026 16 0.0 0.0 0.03 0.76 0.76 71 1010.3
20260505152922 16 0.0 0.0 0.03 0.76 0.76 70 1010.3
20260505152820 16 0.0 0.0 0.03 0.76 0.76 69 1010.4
20260505152714 16 0.0 0.0 0.03 0.76 0.76 69 1010.3
20260505152615 16 0.0 0.0 0.03 0.76 0.76 69 1010.4
20260505152523 16 0.0 0.0 0.03 0.76 0.76 69 1010.4
20260505152501 16 0.0 0.0 0.03 0.76 0.76 70 1010.4
20260505152436 16 0.0 0.0 0.03 0.76 0.74 70 1010.4
20260505152104 16 0.0 0.0 0.00 0.76 0.74 71 1010.4
20260505152024 16 0.0 0.0 0.00 0.76 0.74 71 1010.5
20260505152005 16 0.0 0.0 0.00 0.76 0.74 71 1010.5
20260505151928 16 0.0 0.0 0.00 0.76 0.74 71 1010.5
20260505151558 16 0.0 0.0 0.00 0.76 0.74 72 1010.5
20260505151456 16 0.0 0.0 0.00 0.76 0.74 73 1010.4
20260505151354 16 0.0 0.0 0.00 0.76 0.74 73 1010.5
20260505151252 16 0.0 0.0 0.00 0.76 0.74 74 1010.5
20260505151149 16 0.0 0.0 0.00 0.76 0.74 74 1010.4
20260505151054 16 0.0 0.0 0.00 0.76 0.74 75 1010.5
20260505151030 16 0.0 0.0 0.00 0.76 0.74 75 1010.4
20260505151012 16 0.0 0.0 0.00 0.76 0.74 75 1010.4
20260505150645 16 0.0 0.0 0.00 0.76 0.74 74 1010.5
20260505150601 16 0.0 0.0 0.00 0.76 0.74 74 1010.4
20260505150540 15 0.0 0.0 0.00 0.76 0.74 74 1010.5
20260505150520 15 0.0 0.0 0.00 0.76 0.74 74 1010.5
20260505150452 15 0.0 0.0 0.00 0.76 0.74 74 1010.5
20260505150201 15 0.0 0.0 0.00 0.76 0.74 75 1010.6
20260505140650 12 0.0 0.0 0.23 0.89 0.74 72 1010.7
20260505140630 12 0.0 0.0 0.23 0.89 0.74 72 1010.7
20260505140607 12 0.0 0.0 0.23 0.89 0.74 72 1010.7
20260505140305 12 0.0 0.0 0.23 0.89 0.74 73 1010.6
20260505140239 12 0.0 0.0 0.23 0.69 0.74 73 1010.6
20260505124919 13 0.0 0.0 0.05 0.84 0.51 75 1011.1
20260505124848 13 0.0 0.0 0.05 0.84 0.51 75 1011.1
20260505124827 13 0.0 0.0 0.05 0.84 0.51 75 1011.1
20260505124503 13 0.0 0.0 0.05 0.84 0.51 75 1010.9
20260505124424 13 0.0 0.0 0.05 0.84 0.51 75 1011.1
20260505124400 13 0.0 0.0 0.05 0.84 0.51 75 1011.1
20260505124340 13 0.0 0.0 0.08 0.84 0.51 75 1011.1
20260505124317 13 0.0 0.0 0.08 0.84 0.51 75 1011.1
20260505124033 13 0.0 0.0 0.10 0.84 0.51 75 1011.2
20260505123701 13 0.0 0.0 0.13 0.84 0.51 75 1011.1
20260505123603 13 0.0 0.0 0.13 0.84 0.51 75 1011.1
20260505123503 13 0.0 0.0 0.13 0.84 0.51 75 1011.1
20260505123404 13 0.0 0.0 0.15 0.84 0.51 75 1011.1
20260505123304 13 0.0 0.0 0.15 0.84 0.51 75 1011.1
20260505123242 13 0.0 0.0 0.15 0.84 0.51 75 1011.1
20260505123220 13 0.0 0.0 0.15 0.84 0.51 75 1011.1
20260505122855 13 0.0 0.0 0.15 0.84 0.51 75 1011.1
20260505122805 13 0.0 0.0 0.15 0.84 0.51 75 1011.1
20260505122742 13 0.0 0.0 0.15 0.84 0.51 75 1011.1
20260505122714 13 0.0 0.0 0.15 0.84 0.51 75 1011.1
20260505122341 13 0.0 0.0 0.15 0.84 0.51 74 1011.2
20260505122242 13 0.0 0.0 0.15 0.84 0.51 74 1011.2
20260505122140 13 0.0 0.0 0.15 0.84 0.51 74 1011.1
20260505122038 13 0.0 0.0 0.18 0.84 0.51 74 1011.1
20260505121936 13 0.0 0.0 0.18 0.84 0.51 74 1010.9
20260505121832 13 0.0 0.0 0.18 0.84 0.51 74 1010.9
20260505121733 13 0.0 0.0 0.18 0.84 0.51 74 1011.1
20260505121633 13 0.0 0.0 0.18 0.84 0.51 73 1011.1
20260505121531 13 0.0 0.0 0.18 0.84 0.51 73 1010.9
20260505121448 13 0.0 0.0 0.18 0.84 0.51 73 1011.1
20260505121423 13 0.0 0.0 0.18 0.84 0.51 73 1011.1
20260505121400 13 0.0 0.0 0.20 0.84 0.51 73 1011.1
20260505121025 13 0.0 0.0 0.20 0.84 0.51 73 1011.2
20260505120925 13 0.0 0.0 0.20 0.84 0.51 73 1011.1
20260505120823 13 0.0 0.0 0.20 0.84 0.51 73 1011.1
20260505120733 13 0.0 0.0 0.23 0.64 0.51 73 1011.1
20260505120405 13 0.0 0.0 0.23 0.64 0.51 73 1011.1
20260505120319 13 0.0 0.0 0.00 0.64 0.51 73 1011.1
20260505120136 12 0.0 0.0 0.00 0.64 0.51 73 1011.2
20260505120041 12 0.0 0.0 0.00 0.64 0.51 73 1011.1
20260505115935 12 0.0 0.0 0.00 0.64 0.51 73 1011.1
20260505115851 12 0.0 0.0 0.00 0.64 0.51 74 1011.1
20260505115833 12 0.0 0.0 0.00 0.64 0.51 74 1011.1
20260505115809 12 0.0 0.0 0.00 0.64 0.51 74 1011.1
20260505115745 12 0.0 0.0 0.00 0.64 0.51 74 1011.1
20260505115728 12 0.0 0.0 0.00 0.64 0.51 74 1011.1
20260505115709 12 0.0 0.0 0.00 0.64 0.51 74 1011.1
20260505115655 12 0.0 0.0 0.00 0.64 0.51 74 1011.1
20260505115409 12 0.0 0.0 0.00 0.64 0.48 74 1011.1
20260505115120 12 0.0 0.0 0.03 0.64 0.48 75 1011.1
20260505114839 12 0.0 0.0 0.03 0.64 0.46 75 1010.9
20260505114555 12 0.0 0.0 0.03 0.64 0.43 75 1010.9
20260505114306 12 0.0 0.0 0.03 0.64 0.43 75 1011.1
20260505113959 12 0.0 0.0 0.03 0.64 0.43 75 1011.1
20260505113936 12 0.0 0.0 0.03 0.64 0.41 75 1011.2
20260505113919 13 0.0 0.0 0.03 0.64 0.41 75 1011.1
20260505113901 13 0.0 0.0 0.03 0.64 0.41 75 1011.1
20260505113838 13 0.0 0.0 0.03 0.64 0.38 75 1011.1
20260505113547 13 0.0 0.0 0.03 0.64 0.38 75 1011.1
20260505113252 13 0.0 0.0 0.03 0.64 0.38 75 1010.9
20260505113229 13 0.0 0.0 0.03 0.64 0.36 75 1010.9
20260505113209 13 0.0 0.0 0.03 0.64 0.36 75 1011.1
20260505113142 13 0.0 0.0 0.03 0.64 0.36 75 1010.9
20260505112844 13 0.0 0.0 0.03 0.64 0.36 75 1010.9
20260505112538 13 0.0 0.0 0.03 0.64 0.36 75 1010.9
20260505112250 13 0.0 0.0 0.03 0.64 0.33 75 1010.9
20260505112227 13 0.0 0.0 0.03 0.64 0.33 75 1010.9
20260505112204 13 0.0 0.0 0.03 0.64 0.33 75 1010.9
20260505111918 13 0.0 0.0 0.03 0.64 0.33 75 1010.9
20260505111557 13 0.0 0.0 0.03 0.64 0.33 75 1010.9
20260505111452 13 0.0 0.0 0.03 0.64 0.33 75 1010.8
20260505111351 13 0.0 0.0 0.03 0.64 0.33 75 1010.8
20260505111251 13 0.0 0.0 0.03 0.64 0.33 75 1010.8
20260505111147 13 0.0 0.0 0.03 0.64 0.33 75 1010.8
20260505111048 13 0.0 0.0 0.03 0.64 0.33 75 1010.9
20260505110944 13 0.0 0.0 0.03 0.64 0.33 75 1010.8
20260505110852 13 0.0 0.0 0.03 0.64 0.33 75 1010.8
20260505110742 13 0.0 0.0 0.03 0.64 0.33 75 1010.8
20260505110717 13 0.0 0.0 0.03 0.64 0.33 75 1010.8
20260505110652 13 0.0 0.0 0.03 0.64 0.33 75 1010.8
20260505110334 -17 0.0 0.0 0.00 0.00 0.00 1010.8
20260505102134 13 0.0 0.0 0.00 0.61 0.30 74 1010.7
20260505101541 13 0.0 0.0 0.00 0.61 0.30 73 1010.6
20260505101453 13 0.0 0.0 0.00 0.61 0.30 73 1010.6
20260505101432 13 0.0 0.0 0.00 0.61 0.30 73 1010.7
20260505101409 13 0.0 0.0 0.00 0.61 0.30 73 1010.7
20260505101040 13 0.0 0.0 0.03 0.61 0.30 73 1010.6
20260505100942 13 0.0 0.0 0.03 0.61 0.30 73 1010.6
20260505100838 13 0.0 0.0 0.03 0.61 0.30 73 1010.7
20260505100737 13 0.0 0.0 0.03 0.61 0.30 73 1010.6
20260505100525 13 0.0 0.0 0.03 0.58 0.30 73 1010.6
20260505100421 13 0.0 0.0 0.05 0.58 0.30 73 1010.6
20260505100320 13 0.0 0.0 0.05 0.58 0.30 73 1010.6
20260505100218 13 0.0 0.0 0.05 0.58 0.30 73 1010.6
20260505100113 13 0.0 0.0 0.05 0.58 0.30 73 1010.6
20260505100011 13 0.0 0.0 0.05 0.58 0.30 73 1010.6
20260505095910 13 0.0 0.0 0.05 0.58 0.30 73 1010.6
20260505095808 13 0.0 0.0 0.05 0.58 0.30 73 1010.6
20260505095706 13 0.0 0.0 0.05 0.58 0.30 73 1010.6
20260505095605 13 0.0 0.0 0.05 0.58 0.30 73 1010.6
20260505095504 13 0.0 0.0 0.05 0.58 0.30 73 1010.6
20260505095406 13 0.0 0.0 0.05 0.58 0.30 73 1010.6
20260505095314 13 0.0 0.0 0.05 0.58 0.30 72 1010.6
20260505095243 13 0.0 0.0 0.05 0.58 0.30 72 1010.5
20260505095221 13 0.0 0.0 0.05 0.58 0.30 72 1010.6
20260505095202 13 0.0 0.0 0.05 0.58 0.30 72 1010.6
20260505094916 13 0.0 0.0 0.05 0.58 0.30 72 1010.5
20260505094549 13 0.0 0.0 0.05 0.58 0.30 72 1010.6
20260505094447 13 0.0 0.0 0.05 0.58 0.30 71 1010.5
20260505094348 13 0.0 0.0 0.05 0.58 0.30 71 1010.6
20260505094248 13 0.0 0.0 0.05 0.58 0.30 71 1010.5
20260505094146 13 0.0 0.0 0.05 0.58 0.30 71 1010.5
20260505094049 13 0.0 0.0 0.05 0.58 0.30 71 1010.5
20260505093946 13 0.0 0.0 0.05 0.58 0.30 71 1010.5
20260505093846 13 0.0 0.0 0.05 0.58 0.30 70 1010.5
20260505093800 13 0.0 0.0 0.05 0.58 0.30 70 1010.5
20260505093740 13 0.0 0.0 0.05 0.58 0.30 69 1010.4
20260505093717 13 0.0 0.0 0.05 0.58 0.30 69 1010.4
20260505093347 13 0.0 0.0 0.05 0.58 0.30 70 1010.5
20260505093247 13 0.0 0.0 0.05 0.58 0.30 70 1010.5
20260505093146 13 0.0 0.0 0.05 0.58 0.30 70 1010.5
20260505093046 13 0.0 0.0 0.05 0.58 0.30 70 1010.5
20260505092947 13 0.0 0.0 0.05 0.58 0.30 69 1010.5
20260505092847 13 0.0 0.0 0.05 0.58 0.30 69 1010.4
20260505092746 13 0.0 0.0 0.05 0.58 0.30 69 1010.5
20260505092647 13 0.0 0.0 0.05 0.58 0.30 68 1010.4
20260505092547 13 0.0 0.0 0.05 0.58 0.30 68 1010.5
20260505092447 13 0.0 0.0 0.05 0.58 0.30 68 1010.5
20260505092347 13 0.0 0.0 0.05 0.58 0.30 68 1010.5
20260505092248 13 0.0 0.0 0.05 0.58 0.30 68 1010.5
20260505092146 13 0.0 0.0 0.05 0.58 0.30 68 1010.5
20260505092047 13 0.0 0.0 0.05 0.58 0.30 68 1010.5
20260505091946 13 0.0 0.0 0.05 0.58 0.30 67 1010.5
20260505091847 13 0.0 0.0 0.05 0.58 0.30 67 1010.5
20260505091750 13 0.0 0.0 0.05 0.58 0.30 67 1010.5
20260505091731 13 0.0 0.0 0.05 0.58 0.30 67 1010.5
20260505091717 13 0.0 0.0 0.05 0.58 0.30 67 1010.5
20260505091357 13 0.0 0.0 0.05 0.58 0.30 68 1010.5
20260505091334 13 0.0 0.0 0.05 0.58 0.28 68 1010.5
20260505091312 13 0.0 0.0 0.05 0.58 0.28 68 1010.6
20260505090945 13 0.0 0.0 0.05 0.58 0.28 69 1010.5
20260505090853 13 0.0 0.0 0.05 0.58 0.28 69 1010.5
20260505090833 13 0.0 0.0 0.05 0.58 0.28 69 1010.6
20260505090809 13 0.0 0.0 0.05 0.58 0.28 69 1010.6
20260505090453 13 0.0 0.0 0.05 0.58 0.25 69 1010.5
20260505090439 13 0.0 0.0 0.03 0.58 0.25 69 1010.5
20260505090415 13 0.0 0.0 0.03 0.58 0.25 69 1010.5
20260505090059 12 0.0 0.0 0.03 0.58 0.25 68 1010.5
20260505085944 12 0.0 0.0 0.03 0.56 0.25 68 1010.5
20260505085916 12 0.0 0.0 0.03 0.56 0.25 68 1010.5
20260505085852 12 0.0 0.0 0.03 0.56 0.25 68 1010.5
20260505085530 12 0.0 0.0 0.00 0.56 0.23 68 1010.4
20260505085432 12 0.0 0.0 0.00 0.56 0.23 68 1010.5
20260505085334 12 0.0 0.0 0.00 0.56 0.23 68 1010.5
20260505085234 12 0.0 0.0 0.00 0.56 0.23 68 1010.5
20260505085120 12 0.0 0.0 0.00 0.56 0.23 68 1010.5
20260505085019 12 0.0 0.0 0.00 0.56 0.23 68 1010.5
20260505084918 12 0.0 0.0 0.00 0.56 0.23 68 1010.5
20260505084817 12 0.0 0.0 0.00 0.56 0.23 67 1010.5
20260505084715 12 0.0 0.0 0.00 0.56 0.23 67 1010.4
20260505084611 12 0.0 0.0 0.00 0.56 0.23 66 1010.3
20260505084510 12 0.0 0.0 0.00 0.56 0.23 66 1010.4
20260505084408 12 0.0 0.0 0.00 0.56 0.23 66 1010.3
20260505084309 12 0.0 0.0 0.00 0.56 0.23 66 1010.4
20260505084211 12 0.0 0.0 0.00 0.56 0.23 66 1010.4
20260505084105 12 0.0 0.0 0.00 0.56 0.23 66 1010.3
20260505084005 12 0.0 0.0 0.00 0.56 0.23 66 1010.4
20260505083902 12 0.0 0.0 0.00 0.56 0.23 66 1010.3
20260505083803 12 0.0 0.0 0.00 0.56 0.23 66 1010.3
20260505083703 12 0.0 0.0 0.00 0.56 0.23 66 1010.3
20260505083603 12 0.0 0.0 0.00 0.56 0.23 66 1010.3
20260505083504 12 0.0 0.0 0.00 0.56 0.23 66 1010.3
20260505083404 12 0.0 0.0 0.00 0.56 0.23 65 1010.3
20260505083303 12 0.0 0.0 0.00 0.56 0.23 65 1010.2
20260505083203 12 0.0 0.0 0.00 0.56 0.23 65 1010.2
20260505083103 12 0.0 0.0 0.00 0.56 0.23 65 1010.3
20260505083003 12 0.0 0.0 0.00 0.56 0.23 65 1010.2
20260505082904 12 0.0 0.0 0.00 0.56 0.23 65 1010.3
20260505082802 12 0.0 0.0 0.00 0.56 0.23 65 1010.2
20260505082702 12 0.0 0.0 0.00 0.56 0.23 65 1010.3
20260505082600 12 0.0 0.0 0.00 0.56 0.23 65 1010.2
20260505082500 12 0.0 0.0 0.00 0.56 0.23 65 1010.3
20260505082352 12 0.0 0.0 0.00 0.56 0.23 64 1010.2
20260505082251 12 0.0 0.0 0.00 0.56 0.23 64 1010.2
20260505082152 12 0.0 0.0 0.00 0.56 0.23 64 1010.2
20260505082057 12 0.0 0.0 0.00 0.56 0.23 64 1010.2
20260505082032 12 0.0 0.0 0.00 0.56 0.23 64 1010.2
20260505082013 12 0.0 0.0 0.00 0.56 0.23 64 1010.3
20260505081643 12 0.0 0.0 0.00 0.56 0.23 64 1010.3
20260505081544 12 0.0 0.0 0.00 0.56 0.23 64 1010.2
20260505081445 12 0.0 0.0 0.00 0.56 0.23 64 1010.3
20260505081344 12 0.0 0.0 0.00 0.56 0.23 63 1010.3
20260505081246 12 0.0 0.0 0.00 0.56 0.23 63 1010.4
20260505081144 12 0.0 0.0 0.00 0.56 0.23 63 1010.3
20260505081043 12 0.0 0.0 0.00 0.56 0.23 63 1010.3
20260505080944 12 0.0 0.0 0.03 0.56 0.23 63 1010.3
20260505080843 12 0.0 0.0 0.03 0.56 0.23 63 1010.3
20260505080746 12 0.0 0.0 0.03 0.56 0.23 63 1010.3
20260505080646 12 0.0 0.0 0.03 0.56 0.23 63 1010.3
20260505080545 12 0.0 0.0 0.03 0.56 0.23 63 1010.3
20260505080443 12 0.0 0.0 0.03 0.56 0.23 63 1010.3
20260505080344 12 0.0 0.0 0.03 0.56 0.23 62 1010.3
20260505080303 12 0.0 0.0 0.03 0.56 0.23 62 1010.2
20260505080238 12 0.0 0.0 0.03 0.56 0.23 62 1010.2
20260505080214 12 0.0 0.0 0.03 0.56 0.23 62 1010.3
20260505080153 12 0.0 0.0 0.03 0.53 0.23 62 1010.2
20260505075912 12 0.0 0.0 0.03 0.53 0.23 62 1010.3
20260505075555 12 0.0 0.0 0.03 0.53 0.23 62 1010.2
20260505075533 12 0.0 0.0 0.03 0.53 0.23 62 1010.3
20260505075510 12 0.0 0.0 0.03 0.53 0.23 62 1010.3
20260505075146 12 0.0 0.0 0.03 0.53 0.23 62 1010.2
20260505075034 12 0.0 0.0 0.03 0.53 0.23 62 1010.2
20260505074933 12 0.0 0.0 0.03 0.53 0.23 62 1010.2
20260505074805 12 0.0 0.0 0.03 0.53 0.23 62 1010.3
20260505074706 12 0.0 0.0 0.03 0.53 0.23 62 1010.2
20260505074603 12 0.0 0.0 0.03 0.53 0.23 62 1010.3
20260505074506 12 0.0 0.0 0.03 0.53 0.23 62 1010.3
20260505074405 12 0.0 0.0 0.03 0.53 0.23 62 1010.3
20260505074304 12 0.0 0.0 0.03 0.53 0.23 62 1010.3
20260505074204 12 0.0 0.0 0.03 0.53 0.23 62 1010.3
20260505074105 12 0.0 0.0 0.03 0.53 0.23 62 1010.2
20260505074004 12 0.0 0.0 0.03 0.53 0.23 62 1010.3
20260505073904 12 0.0 0.0 0.03 0.53 0.23 62 1010.3
20260505073801 12 0.0 0.0 0.03 0.53 0.23 62 1010.3
20260505073701 12 0.0 0.0 0.03 0.53 0.23 62 1010.3
20260505073600 12 0.0 0.0 0.03 0.53 0.23 62 1010.3
20260505073537 12 0.0 0.0 0.03 0.53 0.23 62 1010.4
20260505073512 12 0.0 0.0 0.03 0.53 0.23 62 1010.4
20260505073146 12 0.0 0.0 0.03 0.53 0.23 62 1010.4
20260505073046 12 0.0 0.0 0.03 0.53 0.23 62 1010.3
20260505072945 12 0.0 0.0 0.03 0.53 0.23 62 1010.3
20260505072924 12 0.0 0.0 0.03 0.53 0.23 62 1010.4
20260505072901 12 0.0 0.0 0.03 0.53 0.23 62 1010.4
20260505072611 12 0.0 0.0 0.03 0.53 0.23 62 1010.4
20260505072545 12 0.0 0.0 0.03 0.53 0.23 62 1010.4
20260505072527 12 0.0 0.0 0.03 0.53 0.23 62 1010.4
20260505072243 12 0.0 0.0 0.03 0.53 0.23 62 1010.4
20260505072221 12 0.0 0.0 0.03 0.53 0.23 62 1010.4
20260505071932 12 0.0 0.0 0.03 0.53 0.23 62 1010.4
20260505071603 12 0.0 0.0 0.03 0.53 0.23 62 1010.5
20260505071513 12 0.0 0.0 0.03 0.53 0.23 62 1010.4
20260505071450 12 0.0 0.0 0.03 0.53 0.23 62 1010.5
20260505071427 12 0.0 0.0 0.03 0.53 0.23 62 1010.5
20260505071114 12 0.0 0.0 0.03 0.53 0.23 62 1010.5
20260505071050 12 0.0 0.0 0.00 0.53 0.23 62 1010.5
20260505071027 12 0.0 0.0 0.00 0.53 0.23 62 1010.5
20260505070703 12 0.0 0.0 0.00 0.53 0.23 62 1010.5
20260505070602 12 0.0 0.0 0.00 0.53 0.23 62 1010.5
20260505070503 12 0.0 0.0 0.00 0.53 0.23 62 1010.5
20260505070402 12 0.0 0.0 0.00 0.53 0.23 62 1010.5
20260505070302 12 0.0 0.0 0.00 0.53 0.23 62 1010.5
20260505070204 12 0.0 0.0 0.00 0.53 0.23 62 1010.5
20260505070106 12 0.0 0.0 0.00 0.53 0.23 62 1010.6
20260505070005 12 0.0 0.0 0.00 0.53 0.23 62 1010.5
20260505065912 12 0.0 0.0 0.00 0.53 0.23 62 1010.6
20260505065850 12 0.0 0.0 0.00 0.53 0.23 62 1010.6
20260505065827 12 0.0 0.0 0.00 0.53 0.23 62 1010.6
20260505065536 11 0.0 0.0 0.00 0.53 0.23 62 1010.7
20260505065512 11 0.0 0.0 0.00 0.53 0.23 62 1010.6
20260505065454 12 0.0 0.0 0.00 0.53 0.23 62 1010.6
20260505065433 12 0.0 0.0 0.00 0.53 0.23 62 1010.7
20260505065149 12 0.0 0.0 0.00 0.53 0.23 62 1010.7
20260505064912 12 0.0 0.0 0.00 0.53 0.23 62 1010.8
20260505064854 12 0.0 0.0 0.00 0.53 0.23 62 1010.8
20260505064834 12 0.0 0.0 0.00 0.53 0.23 62 1010.8
20260505064812 11 0.0 0.0 0.00 0.53 0.23 62 1010.8
20260505064523 11 0.0 0.0 0.00 0.53 0.23 62 1010.9
20260505064502 11 0.0 0.0 0.00 0.53 0.23 63 1010.9
20260505064439 11 0.0 0.0 0.00 0.53 0.23 63 1010.8
20260505064414 11 0.0 0.0 0.00 0.53 0.23 63 1010.9
20260505064125 11 0.0 0.0 0.00 0.53 0.23 63 1010.9
20260505063608 11 0.0 0.0 0.03 0.53 0.23 63 1011.1
20260505063245 11 0.0 0.0 0.03 0.53 0.23 63 1011.1
20260505063145 11 0.0 0.0 0.03 0.53 0.23 63 1010.9
20260505063044 11 0.0 0.0 0.03 0.53 0.23 63 1011.1
20260505062932 11 0.0 0.0 0.03 0.53 0.23 63 1011.1
20260505062833 11 0.0 0.0 0.03 0.53 0.23 63 1011.1
20260505062747 11 0.0 0.0 0.03 0.53 0.23 63 1011.2
20260505062729 11 0.0 0.0 0.03 0.53 0.23 63 1011.2
20260505062405 11 0.0 0.0 0.03 0.53 0.23 63 1011.2
20260505062330 11 0.0 0.0 0.03 0.53 0.23 63 1011.1
20260505062311 11 0.0 0.0 0.03 0.53 0.23 63 1011.2
20260505062249 11 0.0 0.0 0.03 0.53 0.23 64 1011.2
20260505062225 11 0.0 0.0 0.03 0.53 0.23 64 1011.2
20260505062206 11 0.0 0.0 0.03 0.53 0.23 64 1011.3
20260505062143 11 0.0 0.0 0.03 0.53 0.23 64 1011.4
20260505062124 11 0.0 0.0 0.05 0.53 0.23 64 1011.4
20260505061849 11 0.0 0.0 0.05 0.53 0.23 64 1011.4
20260505061605 11 0.0 0.0 0.05 0.53 0.23 64 1011.5
20260505061059 11 0.0 0.0 0.05 0.53 0.23 64 1011.6
20260505060743 11 0.0 0.0 0.05 0.53 0.23 64 1011.5
20260505060504 11 0.0 0.0 0.05 0.53 0.23 64 1011.7
20260505060334 11 0.0 0.0 0.05 0.53 0.23 65 1011.7
20260505060234 11 0.0 0.0 0.05 0.53 0.23 65 1011.7
20260505060122 11 0.0 0.0 0.05 0.53 0.23 65 1011.8
20260505060001 11 0.0 0.0 0.05 0.51 0.23 65 1011.8
20260505055900 11 0.0 0.0 0.05 0.51 0.23 65 1011.8
20260505055801 11 0.0 0.0 0.05 0.51 0.23 65 1011.8
20260505055700 11 0.0 0.0 0.05 0.51 0.23 65 1011.8
20260505055556 11 0.0 0.0 0.05 0.51 0.23 65 1011.8
20260505055433 11 0.0 0.0 0.05 0.51 0.23 65 1011.9
20260505055336 11 0.0 0.0 0.05 0.51 0.23 65 1011.8
20260505055250 11 0.0 0.0 0.05 0.51 0.23 65 1011.9
20260505055237 11 0.0 0.0 0.05 0.51 0.23 65 1011.9
20260505054915 11 0.0 0.0 0.05 0.51 0.23 65 1011.9
20260505054853 11 0.0 0.0 0.05 0.51 0.23 65 1011.9
20260505054836 11 0.0 0.0 0.05 0.51 0.23 65 1011.9
20260505054505 11 0.0 0.0 0.05 0.51 0.23 65 1011.9
20260505054403 11 0.0 0.0 0.05 0.51 0.23 65 1011.9
20260505054303 11 0.0 0.0 0.05 0.51 0.23 65 1011.9
20260505054202 11 0.0 0.0 0.05 0.51 0.23 65 1011.9
20260505054059 11 0.0 0.0 0.05 0.51 0.23 65 1011.9
20260505053958 11 0.0 0.0 0.05 0.51 0.23 65 1011.9
20260505053907 11 0.0 0.0 0.05 0.51 0.23 65 1011.9
20260505053843 11 0.0 0.0 0.05 0.51 0.20 65 1012.0
20260505053824 11 0.0 0.0 0.05 0.51 0.20 65 1012.0
20260505053522 11 0.0 0.0 0.05 0.51 0.20 65 1011.9
20260505053458 11 0.0 0.0 0.05 0.51 0.20 65 1012.0
20260505053435 11 0.0 0.0 0.05 0.51 0.20 65 1011.9
20260505053414 11 0.0 0.0 0.05 0.51 0.20 65 1012.0
20260505053354 11 0.0 0.0 0.05 0.51 0.20 66 1012.0
20260505053055 11 0.0 0.0 0.05 0.51 0.20 66 1012.0
20260505053035 11 0.0 0.0 0.05 0.51 0.20 66 1012.0
20260505053015 11 0.0 0.0 0.05 0.51 0.20 66 1012.0
20260505052952 11 0.0 0.0 0.05 0.51 0.20 66 1012.0
20260505052932 11 0.0 0.0 0.05 0.51 0.20 66 1012.0
20260505052642 11 0.0 0.0 0.05 0.51 0.20 66 1012.0
20260505052126 11 0.0 0.0 0.05 0.51 0.20 66 1012.0
20260505051758 11 0.0 0.0 0.08 0.51 0.18 66 1012.0
20260505051658 11 0.0 0.0 0.05 0.51 0.18 66 1012.0
20260505051605 11 0.0 0.0 0.05 0.51 0.18 66 1012.0
20260505051542 11 0.0 0.0 0.05 0.51 0.18 66 1012.0
20260505051523 11 0.0 0.0 0.08 0.51 0.18 66 1012.0
20260505051503 11 0.0 0.0 0.08 0.51 0.18 66 1011.9
20260505051226 11 0.0 0.0 0.08 0.51 0.18 66 1012.0
20260505050914 11 0.0 0.0 0.08 0.51 0.18 67 1012.0
20260505050852 11 0.0 0.0 0.08 0.51 0.18 67 1012.1
20260505050834 11 0.0 0.0 0.08 0.51 0.18 67 1012.1
20260505050814 11 0.0 0.0 0.10 0.51 0.18 67 1012.1
20260505050525 11 0.0 0.0 0.10 0.51 0.18 67 1012.1
20260505050505 11 0.0 0.0 0.10 0.51 0.18 67 1012.2
20260505050442 11 0.0 0.0 0.10 0.51 0.18 67 1012.2
20260505050420 11 0.0 0.0 0.10 0.51 0.18 67 1012.2
20260505050128 11 0.0 0.0 0.13 0.38 0.18 67 1012.2
20260505050105 11 0.0 0.0 0.13 0.38 0.18 67 1012.2
20260505041723 11 0.0 0.0 0.10 0.38 0.10 69 1012.3
20260505041437 11 0.0 0.0 0.10 0.38 0.10 69 1012.3
20260505041410 11 0.0 0.0 0.10 0.38 0.08 69 1012.3
20260505041352 11 0.0 0.0 0.08 0.38 0.08 69 1012.3
20260505041334 11 0.0 0.0 0.08 0.38 0.08 69 1012.3
20260505041313 11 0.0 0.0 0.08 0.38 0.08 69 1012.3
20260505041024 11 0.0 0.0 0.05 0.38 0.08 69 1012.3
20260505041001 11 0.0 0.0 0.05 0.38 0.05 69 1012.3
20260505040935 11 0.0 0.0 0.00 0.33 0.05 69 1012.3
20260505040644 11 0.0 0.0 0.00 0.33 0.05 69 1012.3
20260505040130 11 0.0 0.0 0.00 0.33 0.05 69 1012.4
20260505035619 11 0.0 0.0 0.00 0.33 0.05 69 1012.4
20260505035558 11 0.0 0.0 0.00 0.33 0.05 70 1012.4
20260505035534 11 0.0 0.0 0.00 0.33 0.05 70 1012.4
20260505035507 11 0.0 0.0 0.00 0.33 0.05 70 1012.4
20260505035217 11 0.0 0.0 0.00 0.33 0.03 70 1012.5
20260505034702 11 0.0 0.0 0.00 0.33 0.03 70 1012.5
20260505034416 11 0.0 0.0 0.00 0.33 0.00 70 1012.4
20260505034125 11 0.0 0.0 0.00 0.33 0.00 70 1012.5
20260505033757 11 0.0 0.0 0.00 0.33 0.00 70 1012.5
20260505033656 11 0.0 0.0 0.00 0.33 0.00 70 1012.5
20260505033558 11 0.0 0.0 0.00 0.33 0.00 70 1012.5
20260505033450 11 0.0 0.0 0.00 0.33 0.00 70 1012.6
20260505033347 11 0.0 0.0 0.00 0.33 0.00 70 1012.6
20260505033244 11 0.0 0.0 0.00 0.33 0.00 70 1012.5
20260505033139 11 0.0 0.0 0.00 0.33 0.00 70 1012.6
20260505033032 11 0.0 0.0 0.00 0.33 0.00 71 1012.6
20260505032933 11 0.0 0.0 0.00 0.33 0.00 71 1012.6
20260505032835 11 0.0 0.0 0.00 0.33 0.00 71 1012.7
20260505032732 11 0.0 0.0 0.00 0.33 0.00 71 1012.6
20260505032632 11 0.0 0.0 0.00 0.33 0.00 71 1012.7
20260505032534 11 0.0 0.0 0.00 0.33 0.00 71 1012.6
20260505032418 11 0.0 0.0 0.00 0.33 0.00 71 1012.6
20260505032318 11 0.0 0.0 0.00 0.33 0.00 71 1012.7
20260505032213 11 0.0 0.0 0.00 0.33 0.00 71 1012.6
20260505032111 11 0.0 0.0 0.00 0.33 0.00 71 1012.6
20260505032007 11 0.0 0.0 0.00 0.33 0.00 71 1012.6
20260505031918 11 0.0 0.0 0.00 0.33 0.00 71 1012.7
20260505031853 11 0.0 0.0 0.00 0.33 0.00 71 1012.6
20260505031831 11 0.0 0.0 0.00 0.33 0.00 71 1012.6
20260505031504 11 0.0 0.0 0.00 0.33 0.00 71 1012.6
20260505031403 11 0.0 0.0 0.00 0.33 0.00 71 1012.6
20260505031302 11 0.0 0.0 0.00 0.33 0.00 71 1012.6
20260505031202 11 0.0 0.0 0.00 0.33 0.00 71 1012.6
20260505031102 11 0.0 0.0 0.00 0.33 0.00 71 1012.6
20260505031002 11 0.0 0.0 0.00 0.33 0.00 71 1012.6
20260505030902 11 0.0 0.0 0.00 0.33 0.00 71 1012.5
20260505030804 11 0.0 0.0 0.00 0.33 0.00 71 1012.6
20260505030703 11 0.0 0.0 0.00 0.33 0.00 71 1012.6
20260505030555 11 0.0 0.0 0.00 0.33 0.00 71 1012.6
20260505030455 11 0.0 0.0 0.00 0.33 0.00 71 1012.6
20260505030444 11 0.0 0.0 0.00 0.33 0.00 71 1012.5
20260505030419 11 0.0 0.0 0.00 0.33 0.00 71 1012.5
20260505030141 11 0.0 0.0 0.00 0.33 0.00 71 1012.4
20260505030116 11 0.0 0.0 0.00 0.33 0.00 71 1012.4
20260505030043 11 0.0 0.0 0.00 0.33 0.00 71 1012.4
20260505030025 11 0.0 0.0 0.00 0.33 0.00 71 1012.4
20260505025733 11 0.0 0.0 0.00 0.33 0.00 71 1012.3
20260505025445 11 0.0 0.0 0.00 0.33 0.00 71 1012.3
20260505025156 11 0.0 0.0 0.00 0.33 0.00 71 1012.3
20260505024905 11 0.0 0.0 0.00 0.33 0.00 71 1012.3
20260505024843 11 0.0 0.0 0.00 0.33 0.00 71 1012.3
20260505024820 11 0.0 0.0 0.00 0.33 0.00 71 1012.2
20260505024754 11 0.0 0.0 0.00 0.33 0.00 71 1012.2
20260505024734 11 0.0 0.0 0.00 0.33 0.00 71 1012.2
20260505024444 11 0.0 0.0 0.00 0.33 0.00 71 1012.2
20260505023906 11 0.0 0.0 0.00 0.33 0.00 71 1012.2
20260505023848 11 0.0 0.0 0.00 0.33 0.00 71 1012.2
20260505023826 11 0.0 0.0 0.00 0.33 0.00 70 1012.2
20260505023540 11 0.0 0.0 0.00 0.33 0.00 70 1012.2
20260505023518 11 0.0 0.0 0.00 0.33 0.00 70 1012.2
20260505023454 11 0.0 0.0 0.00 0.33 0.00 70 1012.3
20260505023209 11 0.0 0.0 0.00 0.33 0.00 70 1012.2
20260505022839 11 0.0 0.0 0.00 0.33 0.00 70 1012.2
20260505022739 11 0.0 0.0 0.00 0.33 0.00 70 1012.3
20260505022645 11 0.0 0.0 0.00 0.33 0.00 70 1012.2
20260505022620 11 0.0 0.0 0.00 0.33 0.00 70 1012.2
20260505022557 11 0.0 0.0 0.00 0.33 0.00 70 1012.3
20260505022231 11 0.0 0.0 0.00 0.33 0.00 70 1012.2
20260505022131 11 0.0 0.0 0.00 0.33 0.00 69 1012.3
20260505022031 11 0.0 0.0 0.00 0.33 0.00 69 1012.2
20260505021933 11 0.0 0.0 0.00 0.33 0.00 69 1012.3
20260505021832 11 0.0 0.0 0.00 0.33 0.00 69 1012.3
20260505021731 11 0.0 0.0 0.00 0.33 0.00 69 1012.3
20260505021639 11 0.0 0.0 0.00 0.33 0.00 69 1012.4
20260505021532 11 0.0 0.0 0.00 0.33 0.00 69 1012.4
20260505021433 11 0.0 0.0 0.00 0.33 0.00 69 1012.3
20260505021331 11 0.0 0.0 0.00 0.33 0.00 69 1012.3
20260505021231 11 0.0 0.0 0.00 0.33 0.00 68 1012.3
20260505021139 11 0.0 0.0 0.00 0.33 0.00 68 1012.3
20260505021115 11 0.0 0.0 0.00 0.33 0.00 68 1012.3
20260505021055 11 0.0 0.0 0.00 0.33 0.00 68 1012.4
20260505021031 11 0.0 0.0 0.00 0.33 0.00 68 1012.4
20260505020738 11 0.0 0.0 0.00 0.33 0.00 68 1012.3
20260505020405 11 0.0 0.0 0.00 0.33 0.00 67 1012.4
20260505020306 11 0.0 0.0 0.00 0.33 0.00 67 1012.4
20260505020207 11 0.0 0.0 0.00 0.33 0.00 67 1012.4
20260505020144 11 0.0 0.0 0.00 0.33 0.00 67 1012.4
20260505020120 11 0.0 0.0 0.00 0.33 0.00 67 1012.3
20260505015752 11 0.0 0.0 0.00 0.33 0.00 66 1012.3
20260505015708 11 0.0 0.0 0.00 0.33 0.00 66 1012.3
20260505015649 11 0.0 0.0 0.00 0.33 0.00 66 1012.3
20260505015626 11 0.0 0.0 0.00 0.33 0.00 66 1012.3
20260505015607 11 0.0 0.0 0.00 0.33 0.00 66 1012.4
20260505015318 11 0.0 0.0 0.00 0.33 0.00 65 1012.4
20260505014953 11 0.0 0.0 0.00 0.33 0.00 65 1012.3
20260505014852 11 0.0 0.0 0.00 0.33 0.00 65 1012.4
20260505014751 11 0.0 0.0 0.00 0.33 0.00 65 1012.4
20260505014653 11 0.0 0.0 0.00 0.33 0.00 65 1012.4
20260505014551 11 0.0 0.0 0.00 0.33 0.00 65 1012.4
20260505014508 11 0.0 0.0 0.00 0.33 0.00 65 1012.4
20260505014444 11 0.0 0.0 0.00 0.33 0.00 65 1012.4
20260505014421 11 0.0 0.0 0.00 0.33 0.00 65 1012.4
20260505014051 11 0.0 0.0 0.00 0.33 0.00 65 1012.5
20260505014007 11 0.0 0.0 0.00 0.33 0.00 65 1012.4
20260505013944 11 0.0 0.0 0.00 0.33 0.00 65 1012.5
20260505013922 11 0.0 0.0 0.00 0.33 0.00 65 1012.4
20260505013552 11 0.0 0.0 0.00 0.33 0.00 64 1012.5
20260505013502 11 0.0 0.0 0.00 0.33 0.00 64 1012.6
20260505013441 11 0.0 0.0 0.00 0.33 0.00 64 1012.6
20260505013418 11 0.0 0.0 0.00 0.33 0.00 64 1012.6
20260505013106 11 0.0 0.0 0.00 0.33 0.00 64 1012.6
20260505013043 11 0.0 0.0 0.00 0.33 0.00 64 1012.8
20260505013026 11 0.0 0.0 0.00 0.33 0.00 64 1012.6
20260505013003 11 0.0 0.0 0.00 0.33 0.00 64 1012.7
20260505012944 11 0.0 0.0 0.00 0.33 0.00 64 1012.7
20260505012925 11 0.0 0.0 0.00 0.33 0.00 64 1012.6
20260505012634 11 0.0 0.0 0.00 0.33 0.00 64 1012.7
20260505012614 11 0.0 0.0 0.00 0.33 0.00 64 1012.6
20260505012552 11 0.0 0.0 0.00 0.33 0.00 64 1012.7
20260505012259 11 0.0 0.0 0.00 0.33 0.00 63 1012.6
20260505012237 11 0.0 0.0 0.00 0.33 0.00 63 1012.6
20260505012214 11 0.0 0.0 0.00 0.33 0.00 63 1012.6
20260505012151 11 0.0 0.0 0.00 0.33 0.00 63 1012.6
20260505012128 11 0.0 0.0 0.00 0.33 0.00 63 1012.6
20260505011840 11 0.0 0.0 0.00 0.33 0.00 63 1012.6
20260505011556 11 0.0 0.0 0.00 0.33 0.00 63 1012.5
20260505011041 11 0.0 0.0 0.00 0.33 0.00 63 1012.4
20260505011021 11 0.0 0.0 0.00 0.33 0.00 63 1012.3
20260505011000 11 0.0 0.0 0.00 0.33 0.00 63 1012.3
20260505010939 11 0.0 0.0 0.00 0.33 0.00 63 1012.3
20260505010912 11 0.0 0.0 0.00 0.33 0.00 64 1012.3
20260505010849 11 0.0 0.0 0.00 0.33 0.00 64 1012.3
20260505010559 11 0.0 0.0 0.00 0.33 0.00 64 1012.3
20260505010534 11 0.0 0.0 0.00 0.33 0.00 64 1012.3
20260505010510 11 0.0 0.0 0.00 0.33 0.00 64 1012.3
20260505010448 11 0.0 0.0 0.00 0.33 0.00 64 1012.4
20260505010429 10 0.0 0.0 0.00 0.33 0.00 64 1012.4
20260505010140 10 0.0 0.0 0.00 0.33 0.00 64 1012.4
20260505010115 10 0.0 0.0 0.00 0.33 0.00 64 1012.5
20260505010037 10 0.0 0.0 0.00 0.33 0.00 64 1012.5
20260505005746 10 0.0 0.0 0.00 0.33 0.00 65 1012.5
20260505005222 10 0.0 0.0 0.00 0.33 0.00 65 1012.3
20260505004935 10 0.0 0.0 0.00 0.33 0.00 65 1012.3
20260505004642 10 0.0 0.0 0.00 0.33 0.00 65 1012.4
20260505004356 10 0.0 0.0 0.00 0.33 0.00 65 1012.4
20260505004340 10 0.0 0.0 0.00 0.33 0.00 65 1012.5
20260505004318 10 0.0 0.0 0.00 0.33 0.00 65 1012.6
20260505004253 10 0.0 0.0 0.00 0.33 0.00 65 1012.6
20260505004004 10 0.0 0.0 0.00 0.33 0.00 65 1012.7
20260505003400 11 0.0 0.0 0.00 0.33 0.00 65 1012.7
20260505003259 11 0.0 0.0 0.00 0.33 0.00 65 1012.8
20260505003202 11 0.0 0.0 0.00 0.33 0.00 65 1012.8
20260505003140 11 0.0 0.0 0.00 0.33 0.00 65 1012.8
20260505003117 11 0.0 0.0 0.00 0.33 0.00 65 1012.7
20260505003059 11 0.0 0.0 0.00 0.33 0.00 65 1012.7
20260505002810 11 0.0 0.0 0.00 0.33 0.00 65 1012.7
20260505002749 11 0.0 0.0 0.00 0.33 0.00 65 1012.8
20260505002724 11 0.0 0.0 0.00 0.33 0.00 65 1012.8
20260505002700 11 0.0 0.0 0.00 0.33 0.00 65 1012.8
20260505002637 11 0.0 0.0 0.00 0.33 0.00 65 1012.7
20260505002345 11 0.0 0.0 0.00 0.33 0.00 65 1012.7
20260505001810 11 0.0 0.0 0.00 0.33 0.00 65 1012.7
20260505001744 11 0.0 0.0 0.00 0.33 0.00 65 1012.8
20260505001720 11 0.0 0.0 0.00 0.33 0.00 65 1012.7
20260505001656 11 0.0 0.0 0.00 0.33 0.00 65 1012.7
20260505001639 11 0.0 0.0 0.00 0.33 0.00 65 1012.7
20260505001352 11 0.0 0.0 0.00 0.33 0.00 65 1012.8
20260505001329 11 0.0 0.0 0.00 0.33 0.00 65 1012.8
20260505001305 11 0.0 0.0 0.00 0.33 0.00 65 1012.8
20260505001238 11 0.0 0.0 0.00 0.33 0.00 65 1012.8
20260505001213 11 0.0 0.0 0.00 0.33 0.00 65 1012.8
20260505001151 11 0.0 0.0 0.00 0.33 0.00 66 1012.8
20260505000900 11 0.0 0.0 0.00 0.33 0.00 66 1012.8
20260505000836 11 0.0 0.0 0.00 0.33 0.00 66 1012.8
20260505000813 11 0.0 0.0 0.00 0.33 0.00 66 1012.8
20260505000749 11 0.0 0.0 0.00 0.33 0.00 66 1012.8
20260505000457 10 0.0 0.0 0.00 0.33 0.00 66 1012.8
20260505000207 10 0.0 0.0 0.00 0.33 0.00 66 1012.9
20260504235917 10 0.0 0.0 0.00 0.33 0.00 66 1012.9
20260504235626 10 0.0 0.0 0.00 0.33 0.00 66 1012.9
20260504235109 10 0.0 0.0 0.00 0.33 0.00 66 1012.9
20260504235048 10 0.0 0.0 0.00 0.33 0.00 66 1012.9
20260504235027 10 0.0 0.0 0.00 0.33 0.00 66 1013.0
20260504235005 10 0.0 0.0 0.00 0.33 0.00 66 1013.0
20260504234944 10 0.0 0.0 0.00 0.33 0.00 66 1013.0
20260504234655 10 0.0 0.0 0.00 0.33 0.00 66 1013.0
20260504234103 10 0.0 0.0 0.00 0.33 0.00 66 1013.0
20260504234003 10 0.0 0.0 0.00 0.33 0.00 66 1012.9
20260504233904 10 0.0 0.0 0.00 0.33 0.00 66 1013.0
20260504233817 10 0.0 0.0 0.00 0.33 0.00 66 1013.0
20260504233757 10 0.0 0.0 0.00 0.33 0.00 66 1013.0
20260504233733 10 0.0 0.0 0.00 0.33 0.00 66 1013.0
20260504233359 10 0.0 0.0 0.00 0.33 0.00 66 1013.1
20260504233322 10 0.0 0.0 0.00 0.33 0.00 66 1013.1
20260504233258 10 0.0 0.0 0.00 0.33 0.00 66 1013.1
20260504233223 10 0.0 0.0 0.00 0.33 0.00 66 1013.0
20260504232851 10 0.0 0.0 0.00 0.33 0.00 66 1013.0
20260504232752 10 0.0 0.0 0.00 0.33 0.00 67 1013.0
20260504232650 10 0.0 0.0 0.00 0.33 0.00 66 1013.0
20260504232550 10 0.0 0.0 0.00 0.33 0.00 66 1013.0
20260504232450 11 0.0 0.0 0.00 0.33 0.00 66 1013.2
20260504232347 11 0.0 0.0 0.00 0.33 0.00 66 1013.1
20260504232241 11 0.0 0.0 0.00 0.33 0.00 66 1013.1
20260504232137 11 0.0 0.0 0.00 0.33 0.00 66 1013.1
20260504232033 11 0.0 0.0 0.00 0.33 0.00 66 1013.2
20260504231933 11 0.0 0.0 0.00 0.33 0.00 66 1013.1
20260504231834 11 0.0 0.0 0.00 0.33 0.00 66 1013.2
20260504231732 11 0.0 0.0 0.00 0.33 0.00 66 1013.2
20260504231635 11 0.0 0.0 0.00 0.33 0.00 66 1013.1
20260504231527 11 0.0 0.0 0.00 0.33 0.00 66 1013.1
20260504231426 11 0.0 0.0 0.00 0.33 0.00 66 1013.1
20260504231346 11 0.0 0.0 0.00 0.33 0.00 66 1013.1
20260504231321 11 0.0 0.0 0.00 0.33 0.00 66 1013.2
20260504231257 11 0.0 0.0 0.00 0.33 0.00 66 1013.1
20260504230914 11 0.0 0.0 0.00 0.33 0.00 66 1013.1
20260504230822 11 0.0 0.0 0.00 0.33 0.00 66 1013.2
20260504230757 11 0.0 0.0 0.00 0.33 0.00 66 1013.1
20260504230736 11 0.0 0.0 0.00 0.33 0.00 66 1013.2
20260504230418 11 0.0 0.0 0.00 0.33 0.00 67 1013.2
20260504230318 11 0.0 0.0 0.00 0.33 0.00 67 1013.2
20260504230204 10 0.0 0.0 0.00 0.33 0.00 67 1013.3
20260504230105 10 0.0 0.0 0.00 0.33 0.00 67 1013.2
20260504230002 11 0.0 0.0 0.00 0.33 0.00 67 1013.2
20260504225904 11 0.0 0.0 0.00 0.33 0.00 67 1013.2
20260504225805 11 0.0 0.0 0.00 0.33 0.00 67 1013.3
20260504225703 11 0.0 0.0 0.00 0.33 0.00 67 1013.2
20260504225604 11 0.0 0.0 0.00 0.33 0.00 67 1013.2
20260504225503 11 0.0 0.0 0.00 0.33 0.00 67 1013.3
20260504225404 10 0.0 0.0 0.00 0.33 0.00 67 1013.3
20260504225304 10 0.0 0.0 0.00 0.33 0.00 67 1013.3
20260504225219 10 0.0 0.0 0.00 0.33 0.00 67 1013.3
20260504225155 10 0.0 0.0 0.00 0.33 0.00 67 1013.4
20260504225130 10 0.0 0.0 0.00 0.33 0.00 67 1013.3
20260504224816 10 0.0 0.0 0.00 0.33 0.00 67 1013.4
20260504224754 10 0.0 0.0 0.00 0.33 0.00 67 1013.4
20260504224732 10 0.0 0.0 0.00 0.33 0.00 67 1013.4
20260504224359 10 0.0 0.0 0.00 0.33 0.00 67 1013.5
20260504224256 10 0.0 0.0 0.00 0.33 0.00 67 1013.5
20260504224154 10 0.0 0.0 0.00 0.33 0.00 67 1013.5
20260504224051 10 0.0 0.0 0.00 0.33 0.00 67 1013.6
20260504223950 10 0.0 0.0 0.00 0.33 0.00 67 1013.5
20260504223850 10 0.0 0.0 0.00 0.33 0.00 67 1013.6
20260504223749 10 0.0 0.0 0.00 0.33 0.00 67 1013.6
20260504223649 10 0.0 0.0 0.00 0.33 0.00 67 1013.6
20260504223537 10 0.0 0.0 0.00 0.33 0.00 67 1013.6
20260504223437 10 0.0 0.0 0.00 0.33 0.00 67 1013.6
20260504223335 10 0.0 0.0 0.00 0.33 0.00 67 1013.8
20260504223248 10 0.0 0.0 0.00 0.33 0.00 67 1013.8
20260504223226 10 0.0 0.0 0.00 0.33 0.00 67 1013.6
20260504223202 10 0.0 0.0 0.00 0.33 0.00 68 1013.6
20260504222836 10 0.0 0.0 0.00 0.33 0.00 68 1013.6
20260504222809 10 0.0 0.0 0.00 0.33 0.00 67 1013.6
20260504222748 10 0.0 0.0 0.00 0.33 0.00 67 1013.6
20260504222726 10 0.0 0.0 0.00 0.33 0.00 67 1013.6
20260504222434 10 0.0 0.0 0.00 0.33 0.00 67 1013.6
20260504222104 10 0.0 0.0 0.00 0.33 0.00 67 1013.6
20260504222003 10 0.0 0.0 0.00 0.33 0.00 68 1013.6
20260504221902 10 0.0 0.0 0.00 0.33 0.00 68 1013.5
20260504221804 10 0.0 0.0 0.00 0.33 0.00 68 1013.5
20260504221703 10 0.0 0.0 0.00 0.33 0.00 68 1013.6
20260504221615 10 0.0 0.0 0.00 0.33 0.00 68 1013.6
20260504221536 10 0.0 0.0 0.00 0.33 0.00 68 1013.6
20260504221513 10 0.0 0.0 0.00 0.33 0.00 68 1013.6
20260504221450 11 0.0 0.0 0.00 0.33 0.00 68 1013.6
20260504221202 11 0.0 0.0 0.00 0.33 0.00 67 1013.8
20260504221139 11 0.0 0.0 0.00 0.33 0.00 67 1013.8
20260504221118 11 0.0 0.0 0.00 0.33 0.00 67 1013.8
20260504221057 11 0.0 0.0 0.00 0.33 0.00 67 1013.8
20260504221021 11 0.0 0.0 0.00 0.33 0.00 67 1013.8
20260504220717 11 0.0 0.0 0.00 0.33 0.00 67 1013.6
20260504220428 11 0.0 0.0 0.00 0.33 0.00 67 1013.8
20260504220351 11 0.0 0.0 0.00 0.33 0.00 67 1013.8
20260504220044 11 0.0 0.0 0.00 0.33 0.33 67 1013.9
20260504220020 11 0.0 0.0 0.00 0.33 0.33 67 1013.9
20260504215959 11 0.0 0.0 0.00 0.33 0.33 67 1013.9
20260504215935 11 0.0 0.0 0.00 0.33 0.33 67 1014.0
20260504215905 11 0.0 0.0 0.00 0.33 0.33 67 1014.0
20260504215616 11 0.0 0.0 0.00 0.33 0.33 67 1013.9
20260504215600 11 0.0 0.0 0.00 0.33 0.33 67 1013.8
20260504215536 11 0.0 0.0 0.00 0.33 0.33 66 1013.8
20260504215516 11 0.0 0.0 0.00 0.33 0.33 66 1013.8
20260504215452 11 0.0 0.0 0.00 0.33 0.33 66 1013.9
20260504215430 11 0.0 0.0 0.00 0.33 0.33 66 1013.9
20260504215140 11 0.0 0.0 0.00 0.33 0.33 66 1014.0
20260504214625 11 0.0 0.0 0.00 0.33 0.33 67 1014.0
20260504214559 11 0.0 0.0 0.00 0.33 0.33 67 1014.0
20260504214537 11 0.0 0.0 0.00 0.33 0.33 67 1014.0
20260504214243 11 0.0 0.0 0.00 0.33 0.33 67 1014.1
20260504214219 11 0.0 0.0 0.00 0.33 0.33 67 1014.1
20260504214154 11 0.0 0.0 0.00 0.33 0.33 67 1014.0
20260504214132 11 0.0 0.0 0.00 0.33 0.33 67 1014.0
20260504213837 10 0.0 0.0 0.00 0.33 0.33 67 1014.0
20260504213320 10 0.0 0.0 0.00 0.33 0.33 68 1014.0
20260504213255 10 0.0 0.0 0.00 0.33 0.33 68 1014.0
20260504213230 10 0.0 0.0 0.00 0.33 0.33 68 1014.0
20260504213208 10 0.0 0.0 0.00 0.33 0.33 68 1014.1
20260504213149 10 0.0 0.0 0.00 0.33 0.33 68 1014.0
20260504212857 10 0.0 0.0 0.00 0.33 0.33 69 1014.1
20260504212833 10 0.0 0.0 0.00 0.33 0.33 69 1014.0
20260504212817 10 0.0 0.0 0.00 0.33 0.33 69 1014.0
20260504212753 10 0.0 0.0 0.00 0.33 0.33 69 1014.0
20260504212511 10 0.0 0.0 0.00 0.33 0.33 69 1014.0
20260504212453 10 0.0 0.0 0.00 0.33 0.33 69 1014.0
20260504212431 10 0.0 0.0 0.00 0.33 0.33 69 1014.0
20260504212411 10 0.0 0.0 0.00 0.33 0.33 69 1014.0
20260504212349 10 0.0 0.0 0.00 0.33 0.33 69 1014.1
20260504212057 10 0.0 0.0 0.00 0.33 0.33 69 1014.0
20260504211545 10 0.0 0.0 0.00 0.33 0.33 70 1014.0
20260504211253 11 0.0 0.0 0.00 0.33 0.33 70 1014.0
20260504211003 11 0.0 0.0 0.00 0.33 0.33 70 1014.0
20260504210716 11 0.0 0.0 0.00 0.33 0.33 70 1014.0
20260504210414 11 0.0 0.0 0.00 0.33 0.33 70 1014.1
20260504210046 11 0.0 0.0 0.00 0.33 0.33 70 1014.1
20260504205946 11 0.0 0.0 0.00 0.33 0.33 70 1014.1
20260504205846 11 0.0 0.0 0.00 0.33 0.33 70 1014.0
20260504205814 11 0.0 0.0 0.00 0.33 0.33 70 1014.0
20260504205800 11 0.0 0.0 0.00 0.33 0.33 69 1014.0
20260504205433 11 0.0 0.0 0.00 0.33 0.33 69 1014.0
20260504205332 11 0.0 0.0 0.00 0.33 0.33 69 1014.1
20260504205232 11 0.0 0.0 0.00 0.33 0.33 69 1014.1
20260504205134 11 0.0 0.0 0.00 0.33 0.33 69 1014.1
20260504205108 11 0.0 0.0 0.00 0.33 0.33 69 1014.1
20260504205046 11 0.0 0.0 0.00 0.33 0.33 69 1014.1
20260504204722 11 0.0 0.0 0.00 0.33 0.33 70 1014.2
20260504204659 11 0.0 0.0 0.00 0.33 0.33 70 1014.1
20260504204637 11 0.0 0.0 0.00 0.33 0.33 70 1014.1
20260504204612 11 0.0 0.0 0.00 0.33 0.33 70 1014.2
20260504204322 11 0.0 0.0 0.00 0.33 0.33 69 1014.2
20260504203951 11 0.0 0.0 0.00 0.33 0.33 69 1014.3
20260504203847 11 0.0 0.0 0.00 0.33 0.33 69 1014.3
20260504203756 11 0.0 0.0 0.00 0.33 0.33 69 1014.2
20260504203733 11 0.0 0.0 0.00 0.33 0.33 69 1014.3
20260504203713 11 0.0 0.0 0.00 0.33 0.33 69 1014.3
20260504203345 11 0.0 0.0 0.00 0.33 0.33 69 1014.2
20260504203247 11 0.0 0.0 0.00 0.33 0.33 69 1014.3
20260504203147 11 0.0 0.0 0.00 0.33 0.33 70 1014.3
20260504203044 11 0.0 0.0 0.00 0.33 0.33 70 1014.3
20260504202944 11 0.0 0.0 0.00 0.33 0.33 70 1014.3
20260504202845 11 0.0 0.0 0.00 0.33 0.33 70 1014.3
20260504202746 11 0.0 0.0 0.00 0.33 0.33 70 1014.4
20260504202646 11 0.0 0.0 0.00 0.33 0.33 70 1014.4
20260504202546 11 0.0 0.0 0.00 0.33 0.33 70 1014.4
20260504202444 11 0.0 0.0 0.00 0.33 0.33 70 1014.4
20260504202344 11 0.0 0.0 0.00 0.33 0.33 70 1014.4
20260504202246 11 0.0 0.0 0.00 0.33 0.33 70 1014.4
20260504202146 11 0.0 0.0 0.00 0.33 0.33 70 1014.4
20260504202044 11 0.0 0.0 0.00 0.33 0.33 70 1014.4
20260504201946 11 0.0 0.0 0.00 0.33 0.33 70 1014.4
20260504201844 11 0.0 0.0 0.00 0.33 0.33 70 1014.4
20260504201747 11 0.0 0.0 0.00 0.33 0.33 70 1014.4
20260504201645 11 0.0 0.0 0.00 0.33 0.33 70 1014.5
20260504201544 11 0.0 0.0 0.00 0.33 0.33 70 1014.4
20260504201451 11 0.0 0.0 0.00 0.33 0.33 70 1014.5
20260504201436 11 0.0 0.0 0.00 0.33 0.33 70 1014.5
20260504201412 11 0.0 0.0 0.00 0.33 0.33 70 1014.5
20260504201045 11 0.0 0.0 0.00 0.33 0.33 70 1014.5
20260504201019 11 0.0 0.0 0.00 0.33 0.33 70 1014.4
20260504200954 11 0.0 0.0 0.00 0.33 0.33 70 1014.5
20260504200931 11 0.0 0.0 0.00 0.33 0.33 70 1014.5
20260504200909 11 0.0 0.0 0.00 0.33 0.33 70 1014.6
20260504200619 11 0.0 0.0 0.00 0.33 0.33 70 1014.6
20260504200557 11 0.0 0.0 0.00 0.33 0.33 70 1014.6
20260504200537 11 0.0 0.0 0.00 0.33 0.33 70 1014.7
20260504200010 11 0.0 0.0 0.00 0.33 0.33 71 1014.6
20260504195946 11 0.0 0.0 0.00 0.33 0.33 71 1014.6
20260504195922 11 0.0 0.0 0.00 0.33 0.33 71 1014.6
20260504195859 11 0.0 0.0 0.00 0.33 0.33 71 1014.6
20260504195836 11 0.0 0.0 0.00 0.33 0.33 71 1014.7
20260504195812 11 0.0 0.0 0.00 0.33 0.33 71 1014.7
20260504195521 11 0.0 0.0 0.00 0.33 0.33 71 1014.7
20260504194907 11 0.0 0.0 0.00 0.33 0.33 71 1014.7
20260504194816 11 0.0 0.0 0.00 0.33 0.33 71 1014.7
20260504194757 11 0.0 0.0 0.00 0.33 0.33 71 1014.7
20260504194734 11 0.0 0.0 0.00 0.33 0.33 71 1014.6
20260504194408 11 0.0 0.0 0.00 0.33 0.33 71 1014.7
20260504194344 11 0.0 0.0 0.00 0.33 0.33 71 1014.6
20260504194324 11 0.0 0.0 0.00 0.33 0.33 71 1014.6
20260504194022 12 0.0 0.0 0.00 0.33 0.33 71 1014.6
20260504193957 12 0.0 0.0 0.00 0.33 0.33 71 1014.5
20260504193931 12 0.0 0.0 0.00 0.33 0.33 71 1014.6
20260504193604 12 0.0 0.0 0.00 0.33 0.33 71 1014.8
20260504193503 12 0.0 0.0 0.00 0.33 0.33 71 1014.8
20260504193402 12 0.0 0.0 0.00 0.33 0.33 71 1014.8
20260504193305 12 0.0 0.0 0.00 0.33 0.33 71 1014.8
20260504193204 12 0.0 0.0 0.00 0.33 0.33 71 1014.7
20260504193103 12 0.0 0.0 0.00 0.33 0.33 71 1014.7
20260504193004 12 0.0 0.0 0.00 0.33 0.33 71 1014.8
20260504192903 12 0.0 0.0 0.00 0.33 0.33 71 1014.8
20260504192805 12 0.0 0.0 0.00 0.33 0.33 71 1014.8
20260504192704 12 0.0 0.0 0.00 0.33 0.33 71 1014.7
20260504192603 12 0.0 0.0 0.00 0.33 0.33 71 1014.7
20260504192503 12 0.0 0.0 0.00 0.33 0.33 71 1014.7
20260504192404 12 0.0 0.0 0.00 0.33 0.33 71 1014.7
20260504192304 12 0.0 0.0 0.00 0.33 0.33 71 1014.7
20260504192203 12 0.0 0.0 0.00 0.33 0.33 71 1014.7
20260504192102 12 0.0 0.0 0.00 0.33 0.33 71 1014.7
20260504192033 12 0.0 0.0 0.00 0.33 0.33 71 1014.7
20260504192013 12 0.0 0.0 0.00 0.33 0.33 71 1014.7
20260504191951 12 0.0 0.0 0.00 0.33 0.33 71 1014.7
20260504191927 12 0.0 0.0 0.00 0.33 0.33 70 1014.7
20260504191640 12 0.0 0.0 0.00 0.33 0.33 70 1014.7
20260504191623 12 0.0 0.0 0.00 0.33 0.33 70 1014.6
20260504191336 12 0.0 0.0 0.00 0.33 0.33 70 1014.7
20260504191314 12 0.0 0.0 0.00 0.33 0.33 70 1014.7
20260504191036 12 0.0 0.0 0.00 0.33 0.33 70 1014.8
20260504191016 12 0.0 0.0 0.00 0.33 0.33 70 1014.8
20260504190955 12 0.0 0.0 0.00 0.33 0.33 70 1014.7
20260504190721 12 0.0 0.0 0.00 0.33 0.33 70 1014.8
20260504190445 12 0.0 0.0 0.00 0.33 0.33 70 1014.8
20260504190429 12 0.0 0.0 0.00 0.33 0.33 70 1014.8
20260504190409 12 0.0 0.0 0.00 0.33 0.33 70 1014.7
20260504190122 12 0.0 0.0 0.00 0.33 0.33 70 1014.8
20260504190105 12 0.0 0.0 0.00 0.33 0.33 70 1014.8
20260504185817 12 0.0 0.0 0.00 0.33 0.33 70 1014.9
20260504185756 12 0.0 0.0 0.00 0.33 0.33 70 1014.9
20260504185742 12 0.0 0.0 0.00 0.33 0.33 70 1014.9
20260504185503 12 0.0 0.0 0.00 0.33 0.33 70 1014.9
20260504185230 12 0.0 0.0 0.00 0.33 0.33 70 1014.9
20260504184728 12 0.0 0.0 0.00 0.33 0.33 70 1014.9
20260504184711 12 0.0 0.0 0.00 0.33 0.33 70 1014.9
20260504184647 12 0.0 0.0 0.00 0.33 0.33 70 1014.9
20260504184406 12 0.0 0.0 0.00 0.33 0.33 70 1014.9
20260504184043 12 0.0 0.0 0.00 0.33 0.33 70 1014.9
20260504183943 12 0.0 0.0 0.00 0.33 0.33 70 1014.9
20260504183843 12 0.0 0.0 0.00 0.33 0.33 70 1015.0
20260504183742 12 0.0 0.0 0.00 0.33 0.33 70 1014.9
20260504183643 12 0.0 0.0 0.00 0.33 0.33 69 1014.9
20260504183543 12 0.0 0.0 0.00 0.33 0.33 69 1014.9
20260504183443 12 0.0 0.0 0.00 0.33 0.33 69 1015.0
20260504183344 12 0.0 0.0 0.00 0.33 0.33 69 1015.0
20260504183242 12 0.0 0.0 0.00 0.33 0.33 69 1014.9
20260504183143 12 0.0 0.0 0.00 0.33 0.33 69 1015.0
20260504183043 12 0.0 0.0 0.00 0.33 0.33 69 1015.0
20260504182942 12 0.0 0.0 0.00 0.33 0.33 69 1015.0
20260504182842 12 0.0 0.0 0.00 0.33 0.33 69 1015.0
20260504182742 12 0.0 0.0 0.00 0.33 0.33 69 1014.9
20260504182643 12 0.0 0.0 0.00 0.33 0.33 69 1015.0
20260504182541 12 0.0 0.0 0.00 0.33 0.33 69 1015.0
20260504182442 12 0.0 0.0 0.00 0.33 0.33 69 1015.0
20260504182342 12 0.0 0.0 0.00 0.33 0.33 69 1015.0
20260504182314 12 0.0 0.0 0.00 0.33 0.33 69 1015.0
20260504182254 12 0.0 0.0 0.00 0.33 0.33 69 1015.0
20260504182236 12 0.0 0.0 0.00 0.33 0.33 69 1015.0
20260504182208 12 0.0 0.0 0.00 0.33 0.33 69 1015.0
20260504182148 12 0.0 0.0 0.00 0.33 0.33 69 1015.0
20260504181900 12 0.0 0.0 0.00 0.33 0.33 69 1015.0
20260504181610 12 0.0 0.0 0.00 0.33 0.33 69 1015.1
20260504181242 12 0.0 0.0 0.00 0.33 0.33 69 1015.0
20260504181142 12 0.0 0.0 0.00 0.33 0.33 69 1015.0
20260504181043 12 0.0 0.0 0.00 0.33 0.33 69 1015.0
20260504180941 12 0.0 0.0 0.00 0.33 0.33 69 1015.0
20260504180842 12 0.0 0.0 0.00 0.33 0.33 69 1015.0
20260504180752 12 0.0 0.0 0.00 0.33 0.33 69 1015.0
20260504180731 12 0.0 0.0 0.00 0.33 0.33 69 1015.0
20260504180708 12 0.0 0.0 0.00 0.33 0.33 69 1015.0
20260504180358 12 0.0 0.0 0.00 0.33 0.33 69 1015.1
20260504180332 12 0.0 0.0 0.00 0.33 0.33 69 1015.1
20260504180311 12 0.0 0.0 0.00 0.33 0.33 69 1015.1
20260504180251 12 0.0 0.0 0.00 0.33 0.33 69 1015.1
20260504180000 12 0.0 0.0 0.00 0.33 0.33 69 1015.2
20260504175631 12 0.0 0.0 0.00 0.33 0.33 69 1015.1
20260504175601 12 0.0 0.0 0.00 0.33 0.33 69 1015.2
20260504175535 12 0.0 0.0 0.00 0.33 0.33 69 1015.1
20260504175514 12 0.0 0.0 0.00 0.33 0.33 69 1015.1
20260504175446 12 0.0 0.0 0.00 0.33 0.33 69 1015.1
20260504175422 12 0.0 0.0 0.00 0.33 0.33 69 1015.2
20260504175130 12 0.0 0.0 0.00 0.33 0.33 69 1015.1
20260504175109 12 0.0 0.0 0.00 0.33 0.33 69 1015.1
20260504175042 12 0.0 0.0 0.00 0.33 0.33 69 1015.2
20260504174754 12 0.0 0.0 0.00 0.33 0.33 69 1015.3
20260504174237 12 0.0 0.0 0.00 0.33 0.33 69 1015.3
20260504174218 12 0.0 0.0 0.00 0.33 0.33 69 1015.2
20260504174201 12 0.0 0.0 0.00 0.33 0.33 69 1015.3
20260504174138 12 0.0 0.0 0.00 0.33 0.33 68 1015.3
20260504174114 12 0.0 0.0 0.00 0.33 0.33 68 1015.3
20260504173828 12 0.0 0.0 0.00 0.33 0.33 68 1015.3
20260504173759 12 0.0 0.0 0.00 0.33 0.33 67 1015.3
20260504173736 12 0.0 0.0 0.00 0.33 0.33 67 1015.3
20260504173447 12 0.0 0.0 0.00 0.33 0.33 67 1015.4
20260504173422 12 0.0 0.0 0.00 0.33 0.33 67 1015.4
20260504173358 12 0.0 0.0 0.00 0.33 0.33 67 1015.3
20260504173337 12 0.0 0.0 0.00 0.33 0.33 68 1015.4
20260504173047 12 0.0 0.0 0.00 0.33 0.33 68 1015.3
20260504173026 12 0.0 0.0 0.00 0.33 0.33 68 1015.3
20260504173004 12 0.0 0.0 0.00 0.33 0.33 68 1015.4
20260504172712 12 0.0 0.0 0.00 0.33 0.33 68 1015.4
20260504172157 12 0.0 0.0 0.00 0.33 0.33 68 1015.4
20260504172133 12 0.0 0.0 0.00 0.33 0.33 68 1015.4
20260504172112 12 0.0 0.0 0.00 0.33 0.33 68 1015.4
20260504171831 12 0.0 0.0 0.00 0.33 0.33 68 1015.4
20260504171804 12 0.0 0.0 0.00 0.33 0.33 68 1015.5
20260504171741 12 0.0 0.0 0.00 0.33 0.33 68 1015.5
20260504171720 12 0.0 0.0 0.00 0.33 0.33 68 1015.5
20260504171657 12 0.0 0.0 0.00 0.33 0.33 68 1015.6
20260504171634 12 0.0 0.0 0.00 0.33 0.33 68 1015.5
20260504171346 12 0.0 0.0 0.00 0.33 0.33 68 1015.5
20260504171055 12 0.0 0.0 0.00 0.33 0.33 68 1015.6
20260504170536 12 0.0 0.0 0.00 0.33 0.33 67 1015.6
20260504170509 12 0.0 0.0 0.00 0.33 0.33 67 1015.6
20260504170448 12 0.0 0.0 0.00 0.33 0.33 67 1015.6
20260504170425 12 0.0 0.0 0.00 0.33 0.33 67 1015.6
20260504170409 12 0.0 0.0 0.00 0.33 0.33 67 1015.7
20260504170348 12 0.0 0.0 0.03 0.33 0.33 67 1015.7
20260504160442 12 0.0 0.0 0.03 0.30 0.30 66 1016.0
20260504160145 12 0.0 0.0 0.00 0.30 0.30 66 1016.0